Time,TemperatureF,DewpointF,PressureIn,WindDirection,WindDirectionDegrees,WindSpeedMPH,WindSpeedGustMPH,Humidity,HourlyPrecipIn,Conditions,Clouds,dailyrainin,SolarRadiationWatts/m^2,SoftwareType,DateUTC
2013-01-16 00:02:00,46.4,46.2,29.94,North,355,0.0,2.0,99,0.08,,,1.18,0.0,meteohub,2013-01-16 05:02:00,
2013-01-16 00:05:00,46.4,46.2,29.94,North,355,0.0,2.0,99,0.08,,,0.00,0.0,meteohub,2013-01-16 05:05:00,
2013-01-16 00:11:00,46.4,46.2,29.95,North,355,0.0,2.0,99,0.09,,,0.01,0.0,meteohub,2013-01-16 05:11:00,
2013-01-16 00:17:00,46.4,46.2,29.94,NNE,15,0.0,1.0,99,0.09,,,0.01,0.0,meteohub,2013-01-16 05:17:00,
2013-01-16 00:22:00,46.4,46.2,29.94,NNE,15,0.0,1.0,99,0.09,,,0.02,0.0,meteohub,2013-01-16 05:22:00,
2013-01-16 00:27:00,46.2,46.0,29.94,NE,40,0.0,1.0,99,0.08,,,0.02,0.0,meteohub,2013-01-16 05:27:00,
2013-01-16 00:32:00,46.2,46.0,29.94,NE,40,0.0,4.0,99,0.06,,,0.02,0.0,meteohub,2013-01-16 05:32:00,
2013-01-16 00:37:00,46.0,45.9,29.94,NE,40,1.0,4.0,99,0.06,,,0.03,0.0,meteohub,2013-01-16 05:37:00,
2013-01-16 00:42:00,45.9,45.7,29.94,East,88,1.0,4.0,99,0.05,,,0.03,0.0,meteohub,2013-01-16 05:42:00,
2013-01-16 00:47:00,45.7,45.5,29.94,East,93,0.0,3.0,99,0.04,,,0.03,0.0,meteohub,2013-01-16 05:47:00,
2013-01-16 00:52:00,45.7,45.5,29.94,ENE,60,1.0,3.0,99,0.04,,,0.03,0.0,meteohub,2013-01-16 05:52:00,
2013-01-16 00:57:00,45.7,45.5,29.93,ENE,61,0.0,3.0,99,0.04,,,0.04,0.0,meteohub,2013-01-16 05:57:00,
2013-01-16 01:02:00,45.7,45.5,29.93,NNE,16,2.0,2.0,99,0.04,,,0.04,0.0,meteohub,2013-01-16 06:02:00,
2013-01-16 01:07:00,45.7,45.5,29.93,NE,40,1.0,3.0,99,0.04,,,0.04,0.0,meteohub,2013-01-16 06:07:00,
2013-01-16 01:12:00,45.7,45.5,29.92,NE,55,1.0,3.0,99,0.03,,,0.04,0.0,meteohub,2013-01-16 06:12:00,
2013-01-16 01:17:00,45.9,45.7,29.92,NE,55,0.0,3.0,99,0.03,,,0.04,0.0,meteohub,2013-01-16 06:17:00,
2013-01-16 01:22:00,45.9,45.7,29.92,NE,55,0.0,3.0,99,0.03,,,0.05,0.0,meteohub,2013-01-16 06:22:00,
2013-01-16 01:27:00,45.9,45.7,29.93,ENE,71,0.0,2.0,99,0.03,,,0.05,0.0,meteohub,2013-01-16 06:27:00,
2013-01-16 01:32:00,45.9,45.7,29.93,ENE,76,0.0,3.0,99,0.03,,,0.05,0.0,meteohub,2013-01-16 06:32:00,
2013-01-16 01:37:00,46.0,45.9,29.93,ENE,76,0.0,3.0,99,0.02,,,0.05,0.0,meteohub,2013-01-16 06:37:00,
2013-01-16 01:42:00,46.0,45.9,29.93,ENE,76,0.0,3.0,99,0.02,,,0.05,0.0,meteohub,2013-01-16 06:42:00,
2013-01-16 01:47:00,46.0,45.9,29.93,ENE,76,0.0,2.0,99,0.03,,,0.06,0.0,meteohub,2013-01-16 06:47:00,
2013-01-16 01:52:00,46.0,45.9,29.93,ENE,70,1.0,2.0,99,0.03,,,0.06,0.0,meteohub,2013-01-16 06:52:00,
2013-01-16 01:57:00,46.0,45.9,29.93,ENE,69,0.0,2.0,99,0.03,,,0.07,0.0,meteohub,2013-01-16 06:57:00,
2013-01-16 02:02:00,46.0,45.9,29.93,ENE,69,0.0,2.0,99,0.03,,,0.07,0.0,meteohub,2013-01-16 07:02:00,
2013-01-16 02:07:00,46.2,46.0,29.93,ENE,69,0.0,2.0,99,0.04,,,0.08,0.0,meteohub,2013-01-16 07:07:00,
2013-01-16 02:12:00,46.2,46.0,29.93,ENE,69,0.0,1.0,99,0.04,,,0.08,0.0,meteohub,2013-01-16 07:12:00,
2013-01-16 02:17:00,46.2,46.0,29.92,ENE,69,0.0,1.0,99,0.03,,,0.08,0.0,meteohub,2013-01-16 07:17:00,
2013-01-16 02:22:00,46.4,46.2,29.92,ENE,69,0.0,1.0,99,0.03,,,0.08,0.0,meteohub,2013-01-16 07:22:00,
2013-01-16 02:27:00,46.4,46.2,29.92,ENE,69,0.0,0.0,99,0.04,,,0.09,0.0,meteohub,2013-01-16 07:27:00,
2013-01-16 02:32:00,46.6,46.6,29.92,ENE,69,0.0,1.0,100,0.04,,,0.09,0.0,meteohub,2013-01-16 07:32:00,
2013-01-16 02:37:00,46.6,46.6,29.92,ENE,69,0.0,1.0,100,0.05,,,0.10,0.0,meteohub,2013-01-16 07:37:00,
2013-01-16 02:42:00,46.6,46.6,29.93,ENE,69,0.0,2.0,100,0.04,,,0.10,0.0,meteohub,2013-01-16 07:42:00,
2013-01-16 02:47:00,46.6,46.6,29.93,ENE,69,0.0,2.0,100,0.04,,,0.10,0.0,meteohub,2013-01-16 07:47:00,
2013-01-16 02:52:00,46.4,46.4,29.92,ENE,69,0.0,2.0,100,0.04,,,0.10,0.0,meteohub,2013-01-16 07:52:00,
2013-01-16 02:57:00,46.2,46.0,29.92,ENE,69,0.0,1.0,99,0.03,,,0.10,0.0,meteohub,2013-01-16 07:57:00,
2013-01-16 03:02:00,46.2,46.0,29.92,NNE,28,0.0,1.0,99,0.02,,,0.10,0.0,meteohub,2013-01-16 08:02:00,
2013-01-16 03:07:00,45.9,45.7,29.92,NNW,331,0.0,4.0,99,0.02,,,0.10,0.0,meteohub,2013-01-16 08:07:00,
2013-01-16 03:12:00,45.9,45.7,29.92,NNW,332,0.0,4.0,99,0.02,,,0.10,0.0,meteohub,2013-01-16 08:12:00,
2013-01-16 03:17:00,45.9,45.7,29.92,NNW,332,0.0,3.0,99,0.02,,,0.10,0.0,meteohub,2013-01-16 08:17:00,
2013-01-16 03:22:00,45.9,45.7,29.92,NNW,332,0.0,2.0,99,0.03,,,0.11,0.0,meteohub,2013-01-16 08:22:00,
2013-01-16 03:27:00,45.9,45.7,29.92,NNW,333,0.0,2.0,99,0.03,,,0.12,0.0,meteohub,2013-01-16 08:27:00,
2013-01-16 03:32:00,45.7,45.5,29.93,NNW,333,0.0,1.0,99,0.04,,,0.13,0.0,meteohub,2013-01-16 08:32:00,
2013-01-16 03:37:00,45.7,45.5,29.93,NNW,333,0.0,1.0,99,0.03,,,0.13,0.0,meteohub,2013-01-16 08:37:00,
2013-01-16 03:42:00,45.9,45.7,29.93,NNW,333,0.0,2.0,99,0.04,,,0.14,0.0,meteohub,2013-01-16 08:42:00,
2013-01-16 03:47:00,45.7,45.5,29.93,NNW,333,0.0,2.0,99,0.04,,,0.14,0.0,meteohub,2013-01-16 08:47:00,
2013-01-16 03:52:00,45.5,45.3,29.93,NNW,333,0.0,2.0,99,0.04,,,0.14,0.0,meteohub,2013-01-16 08:52:00,
2013-01-16 03:57:00,45.3,45.1,29.93,NNW,333,0.0,1.0,99,0.04,,,0.14,0.0,meteohub,2013-01-16 08:57:00,
2013-01-16 04:02:00,45.3,45.1,29.92,NNW,333,0.0,1.0,99,0.04,,,0.14,0.0,meteohub,2013-01-16 09:02:00,
2013-01-16 04:07:00,45.3,45.1,29.92,NNW,333,0.0,1.0,99,0.04,,,0.14,0.0,meteohub,2013-01-16 09:07:00,
2013-01-16 04:12:00,45.5,45.3,29.92,NNW,333,0.0,0.0,99,0.04,,,0.14,0.0,meteohub,2013-01-16 09:12:00,
2013-01-16 04:17:00,45.5,45.3,29.91,NNW,333,0.0,0.0,99,0.04,,,0.14,0.0,meteohub,2013-01-16 09:17:00,
2013-01-16 04:22:00,45.5,45.3,29.91,NNW,333,0.0,0.0,99,0.02,,,0.14,0.0,meteohub,2013-01-16 09:22:00,
2013-01-16 04:27:00,45.5,45.3,29.91,NNW,333,0.0,0.0,99,0.03,,,0.15,0.0,meteohub,2013-01-16 09:27:00,
2013-01-16 04:32:00,45.5,45.5,29.91,NNW,333,0.0,0.0,100,0.02,,,0.15,0.0,meteohub,2013-01-16 09:32:00,
2013-01-16 04:37:00,45.5,45.5,29.91,NNW,333,0.0,0.0,100,0.02,,,0.15,0.0,meteohub,2013-01-16 09:37:00,
2013-01-16 04:42:00,45.7,45.7,29.91,NNW,333,0.0,0.0,100,0.01,,,0.15,0.0,meteohub,2013-01-16 09:42:00,
2013-01-16 04:47:00,45.7,45.7,29.91,NNW,333,0.0,0.0,100,0.01,,,0.15,0.0,meteohub,2013-01-16 09:47:00,
2013-01-16 04:52:00,45.7,45.5,29.91,NNW,333,0.0,0.0,99,0.01,,,0.15,0.0,meteohub,2013-01-16 09:52:00,
2013-01-16 04:57:00,45.7,45.5,29.90,NNW,333,0.0,0.0,99,0.01,,,0.15,0.0,meteohub,2013-01-16 09:57:00,
2013-01-16 05:02:00,45.7,45.5,29.90,NNW,333,0.0,0.0,99,0.01,,,0.15,0.0,meteohub,2013-01-16 10:02:00,
2013-01-16 05:07:00,45.9,45.7,29.90,NNW,333,0.0,0.0,99,0.01,,,0.15,0.0,meteohub,2013-01-16 10:07:00,
2013-01-16 05:12:00,45.9,45.7,29.90,NNW,333,0.0,0.0,99,0.01,,,0.15,0.0,meteohub,2013-01-16 10:12:00,
2013-01-16 05:17:00,46.0,46.0,29.90,NNW,333,0.0,0.0,100,0.01,,,0.15,0.0,meteohub,2013-01-16 10:17:00,
2013-01-16 05:22:00,46.2,46.2,29.89,NNW,333,0.0,0.0,100,0.00,,,0.15,0.0,meteohub,2013-01-16 10:22:00,
2013-01-16 05:27:00,46.2,46.2,29.89,NNW,333,0.0,0.0,100,0.00,,,0.15,0.0,meteohub,2013-01-16 10:27:00,
2013-01-16 05:32:00,46.2,46.2,29.89,NNW,333,0.0,0.0,100,0.00,,,0.15,0.0,meteohub,2013-01-16 10:32:00,
2013-01-16 05:37:00,46.2,46.2,29.89,NNW,333,0.0,0.0,100,0.00,,,0.15,0.0,meteohub,2013-01-16 10:37:00,
2013-01-16 05:42:00,46.2,46.2,29.89,NNW,333,0.0,1.0,100,0.00,,,0.15,0.0,meteohub,2013-01-16 10:42:00,
2013-01-16 05:47:00,46.4,46.4,29.89,NNW,333,0.0,1.0,100,0.00,,,0.15,0.0,meteohub,2013-01-16 10:47:00,
2013-01-16 05:52:00,46.6,46.6,29.89,NNW,333,0.0,1.0,100,0.00,,,0.15,0.0,meteohub,2013-01-16 10:52:00,
2013-01-16 05:57:00,46.8,46.8,29.89,NNW,333,0.0,0.0,100,0.00,,,0.15,0.0,meteohub,2013-01-16 10:57:00,
2013-01-16 06:02:00,46.8,46.8,29.89,NNW,333,0.0,0.0,100,0.01,,,0.16,0.0,meteohub,2013-01-16 11:02:00,
2013-01-16 06:07:00,46.9,46.9,29.89,NNW,333,0.0,0.0,100,0.01,,,0.16,0.0,meteohub,2013-01-16 11:07:00,
2013-01-16 06:12:00,47.1,47.1,29.89,NNW,333,0.0,0.0,100,0.01,,,0.16,0.0,meteohub,2013-01-16 11:12:00,
2013-01-16 06:17:00,47.3,47.3,29.89,NNW,333,0.0,0.0,100,0.01,,,0.16,0.0,meteohub,2013-01-16 11:17:00,
2013-01-16 06:22:00,47.5,47.5,29.89,NNW,333,0.0,0.0,100,0.01,,,0.16,0.0,meteohub,2013-01-16 11:22:00,
2013-01-16 06:27:00,47.7,47.7,29.89,NNW,333,0.0,0.0,100,0.02,,,0.17,0.0,meteohub,2013-01-16 11:27:00,
2013-01-16 06:32:00,47.7,47.7,29.89,NNW,333,0.0,0.0,100,0.02,,,0.17,0.0,meteohub,2013-01-16 11:32:00,
2013-01-16 06:37:00,47.8,47.8,29.90,NNW,333,0.0,0.0,100,0.02,,,0.17,0.0,meteohub,2013-01-16 11:37:00,
2013-01-16 06:42:00,47.7,47.7,29.90,NNW,333,0.0,2.0,100,0.05,,,0.20,0.0,meteohub,2013-01-16 11:42:00,
2013-01-16 06:47:00,47.5,47.5,29.90,NNW,333,0.0,2.0,100,0.05,,,0.20,0.0,meteohub,2013-01-16 11:47:00,
2013-01-16 06:52:00,47.3,47.3,29.90,NNW,333,0.0,2.0,100,0.06,,,0.21,0.0,meteohub,2013-01-16 11:52:00,
2013-01-16 06:57:00,47.1,47.1,29.90,NNW,333,0.0,0.0,100,0.06,,,0.22,0.0,meteohub,2013-01-16 11:57:00,
2013-01-16 07:02:00,47.1,47.1,29.90,NNW,333,0.0,0.0,100,0.06,,,0.22,0.0,meteohub,2013-01-16 12:02:00,
2013-01-16 07:07:00,47.1,47.1,29.91,NNW,333,0.0,0.0,100,0.08,,,0.24,0.0,meteohub,2013-01-16 12:07:00,
2013-01-16 07:12:00,47.1,47.1,29.90,NNW,333,0.0,0.0,100,0.08,,,0.24,0.0,meteohub,2013-01-16 12:12:00,
2013-01-16 07:17:00,47.3,47.3,29.90,NNW,333,0.0,2.0,100,0.08,,,0.24,0.0,meteohub,2013-01-16 12:17:00,
2013-01-16 07:22:00,47.5,47.5,29.90,NNW,333,1.0,2.0,100,0.09,,,0.25,0.0,meteohub,2013-01-16 12:22:00,
2013-01-16 07:27:00,47.7,47.7,29.91,NNW,333,0.0,2.0,100,0.09,,,0.26,0.0,meteohub,2013-01-16 12:27:00,
2013-01-16 07:32:00,47.5,47.5,29.91,NNW,333,0.0,1.0,100,0.10,,,0.27,0.0,meteohub,2013-01-16 12:32:00,
2013-01-16 07:37:00,47.5,47.5,29.91,NNW,333,0.0,1.0,100,0.10,,,0.28,0.0,meteohub,2013-01-16 12:37:00,
2013-01-16 07:42:00,47.1,47.1,29.92,NNW,333,1.0,2.0,100,0.08,,,0.28,0.0,meteohub,2013-01-16 12:42:00,
2013-01-16 07:47:00,46.0,46.0,29.92,NNW,333,0.0,3.0,100,0.08,,,0.29,0.0,meteohub,2013-01-16 12:47:00,
2013-01-16 07:52:00,45.3,45.1,29.91,NNW,333,0.0,3.0,99,0.07,,,0.29,0.0,meteohub,2013-01-16 12:52:00,
2013-01-16 07:57:00,45.3,45.1,29.92,NNW,333,0.0,2.0,99,0.08,,,0.30,7.0,meteohub,2013-01-16 12:57:00,
2013-01-16 08:02:00,45.9,45.7,29.92,NNW,333,0.0,1.0,99,0.08,,,0.31,9.0,meteohub,2013-01-16 13:02:00,
2013-01-16 08:07:00,46.0,46.0,29.92,NNW,333,0.0,1.0,100,0.08,,,0.32,12.0,meteohub,2013-01-16 13:07:00,
2013-01-16 08:12:00,46.4,46.4,29.93,NNW,333,0.0,0.0,100,0.08,,,0.32,11.0,meteohub,2013-01-16 13:12:00,
2013-01-16 08:17:00,46.8,46.8,29.94,NNW,333,0.0,0.0,100,0.08,,,0.32,9.0,meteohub,2013-01-16 13:17:00,
2013-01-16 08:22:00,46.8,46.8,29.94,NNW,333,0.0,0.0,100,0.08,,,0.33,18.0,meteohub,2013-01-16 13:22:00,
2013-01-16 08:27:00,46.9,46.9,29.94,NNW,333,0.0,0.0,100,0.07,,,0.33,16.0,meteohub,2013-01-16 13:27:00,
2013-01-16 08:32:00,46.9,46.9,29.94,NNW,333,0.0,0.0,100,0.06,,,0.33,28.0,meteohub,2013-01-16 13:32:00,
2013-01-16 08:37:00,47.1,47.1,29.93,NNW,333,0.0,0.0,100,0.05,,,0.33,44.0,meteohub,2013-01-16 13:37:00,
2013-01-16 08:42:00,47.5,47.5,29.93,NNW,333,0.0,1.0,100,0.05,,,0.33,28.0,meteohub,2013-01-16 13:42:00,
2013-01-16 08:47:00,47.8,47.8,29.93,NNW,333,0.0,1.0,100,0.04,,,0.33,28.0,meteohub,2013-01-16 13:47:00,
2013-01-16 08:52:00,48.0,48.0,29.93,NNW,333,0.0,1.0,100,0.04,,,0.34,33.0,meteohub,2013-01-16 13:52:00,
2013-01-16 08:57:00,48.0,48.0,29.93,NNW,333,0.0,1.0,100,0.04,,,0.34,60.0,meteohub,2013-01-16 13:57:00,
2013-01-16 09:02:00,48.0,48.0,29.94,NNW,333,0.0,1.0,100,0.03,,,0.34,39.0,meteohub,2013-01-16 14:02:00,
2013-01-16 09:07:00,47.8,47.8,29.94,NNW,333,0.0,2.0,100,0.02,,,0.34,35.0,meteohub,2013-01-16 14:07:00,
2013-01-16 09:12:00,47.8,47.8,29.94,NNW,333,0.0,2.0,100,0.02,,,0.34,37.0,meteohub,2013-01-16 14:12:00,
2013-01-16 09:17:00,47.8,47.8,29.94,NNW,333,0.0,2.0,100,0.02,,,0.34,42.0,meteohub,2013-01-16 14:17:00,
2013-01-16 09:22:00,48.2,48.2,29.94,NNW,333,1.0,1.0,100,0.01,,,0.34,32.0,meteohub,2013-01-16 14:22:00,
2013-01-16 09:27:00,48.7,48.7,29.94,NNW,333,1.0,2.0,100,0.01,,,0.34,33.0,meteohub,2013-01-16 14:27:00,
2013-01-16 09:32:00,49.1,49.1,29.95,NW,316,0.0,2.0,100,0.01,,,0.34,32.0,meteohub,2013-01-16 14:32:00,
2013-01-16 09:37:00,49.1,49.1,29.95,NW,316,0.0,2.0,100,0.01,,,0.34,37.0,meteohub,2013-01-16 14:37:00,
2013-01-16 09:42:00,48.7,48.7,29.95,South,173,1.0,4.0,100,0.01,,,0.34,35.0,meteohub,2013-01-16 14:42:00,
2013-01-16 09:47:00,48.4,48.4,29.96,South,173,2.0,4.0,100,0.01,,,0.34,44.0,meteohub,2013-01-16 14:47:00,
2013-01-16 09:52:00,48.4,48.4,29.96,South,173,0.0,4.0,100,0.00,,,0.34,46.0,meteohub,2013-01-16 14:52:00,
2013-01-16 09:57:00,48.7,48.7,29.96,SSE,159,0.0,5.0,100,0.00,,,0.34,54.0,meteohub,2013-01-16 14:57:00,
2013-01-16 10:02:00,48.7,48.7,29.96,SSE,159,4.0,5.0,100,0.00,,,0.34,74.0,meteohub,2013-01-16 15:02:00,
2013-01-16 10:07:00,48.9,48.9,29.95,SSE,167,1.0,5.0,100,0.00,,,0.34,134.0,meteohub,2013-01-16 15:07:00,
2013-01-16 10:12:00,49.6,49.6,29.95,SSE,161,4.0,7.0,100,0.00,,,0.34,278.0,meteohub,2013-01-16 15:12:00,
2013-01-16 10:17:00,50.5,50.5,29.95,SE,144,2.0,7.0,100,0.00,,,0.34,153.0,meteohub,2013-01-16 15:17:00,
2013-01-16 10:22:00,49.6,49.6,29.95,SE,144,2.0,7.0,100,0.00,,,0.34,104.0,meteohub,2013-01-16 15:22:00,
2013-01-16 10:27:00,48.9,48.9,29.95,SE,141,1.0,7.0,100,0.00,,,0.34,105.0,meteohub,2013-01-16 15:27:00,
2013-01-16 10:32:00,48.6,48.6,29.95,SE,134,2.0,5.0,100,0.00,,,0.34,105.0,meteohub,2013-01-16 15:32:00,
2013-01-16 10:37:00,48.4,48.4,29.95,SE,134,1.0,4.0,100,0.00,,,0.34,121.0,meteohub,2013-01-16 15:37:00,
2013-01-16 10:42:00,48.4,48.4,29.95,SE,134,0.0,4.0,100,0.00,,,0.34,111.0,meteohub,2013-01-16 15:42:00,
2013-01-16 10:47:00,48.0,48.0,29.95,SE,134,0.0,4.0,100,0.00,,,0.34,81.0,meteohub,2013-01-16 15:47:00,
2013-01-16 10:52:00,48.0,48.0,29.95,SE,134,0.0,2.0,100,0.00,,,0.34,70.0,meteohub,2013-01-16 15:52:00,
2013-01-16 10:57:00,48.0,48.0,29.95,SE,134,0.0,2.0,100,0.00,,,0.34,86.0,meteohub,2013-01-16 15:57:00,
2013-01-16 11:02:00,48.6,48.6,29.95,SE,134,1.0,1.0,100,0.00,,,0.34,62.0,meteohub,2013-01-16 16:02:00,
2013-01-16 11:07:00,48.7,48.7,29.95,SE,134,0.0,2.0,100,0.00,,,0.34,72.0,meteohub,2013-01-16 16:07:00,
2013-01-16 11:12:00,48.9,48.9,29.95,SE,126,0.0,2.0,100,0.00,,,0.34,67.0,meteohub,2013-01-16 16:12:00,
2013-01-16 11:17:00,49.5,49.5,29.95,NNW,343,0.0,3.0,100,0.00,,,0.34,53.0,meteohub,2013-01-16 16:17:00,
2013-01-16 11:22:00,49.8,49.8,29.94,NNW,343,2.0,3.0,100,0.00,,,0.34,67.0,meteohub,2013-01-16 16:22:00,
2013-01-16 11:27:00,49.8,49.8,29.94,NNW,343,0.0,3.0,100,0.00,,,0.34,102.0,meteohub,2013-01-16 16:27:00,
2013-01-16 11:32:00,50.0,50.0,29.93,NNE,23,0.0,3.0,100,0.00,,,0.34,98.0,meteohub,2013-01-16 16:32:00,
2013-01-16 11:37:00,50.0,50.0,29.93,NNE,19,3.0,4.0,100,0.00,,,0.34,120.0,meteohub,2013-01-16 16:37:00,
2013-01-16 11:42:00,50.2,50.2,29.93,NW,323,0.0,5.0,100,0.00,,,0.34,104.0,meteohub,2013-01-16 16:42:00,
2013-01-16 11:47:00,50.5,50.5,29.93,NW,323,0.0,5.0,100,0.00,,,0.34,95.0,meteohub,2013-01-16 16:47:00,
2013-01-16 11:52:00,50.7,50.7,29.93,NW,323,0.0,4.0,100,0.00,,,0.34,113.0,meteohub,2013-01-16 16:52:00,
2013-01-16 11:57:00,51.1,51.1,29.93,NW,323,0.0,2.0,100,0.00,,,0.34,109.0,meteohub,2013-01-16 16:57:00,
2013-01-16 12:02:00,51.3,51.3,29.93,South,190,0.0,2.0,100,0.00,,,0.34,107.0,meteohub,2013-01-16 17:02:00,
2013-01-16 12:07:00,50.7,50.7,29.93,South,182,0.0,3.0,100,0.00,,,0.34,74.0,meteohub,2013-01-16 17:07:00,
2013-01-16 12:12:00,50.2,50.2,29.93,South,182,0.0,3.0,100,0.00,,,0.34,54.0,meteohub,2013-01-16 17:12:00,
2013-01-16 12:17:00,50.0,50.0,29.93,South,182,1.0,3.0,100,0.00,,,0.34,58.0,meteohub,2013-01-16 17:17:00,
2013-01-16 12:22:00,49.8,49.8,29.93,South,182,0.0,2.0,100,0.00,,,0.34,62.0,meteohub,2013-01-16 17:22:00,
2013-01-16 12:27:00,49.8,49.8,29.93,South,182,0.0,2.0,100,0.00,,,0.34,62.0,meteohub,2013-01-16 17:27:00,
2013-01-16 12:32:00,49.8,49.8,29.93,South,182,0.0,2.0,100,0.00,,,0.34,69.0,meteohub,2013-01-16 17:32:00,
2013-01-16 12:37:00,49.8,49.8,29.92,South,182,0.0,0.0,100,0.00,,,0.34,84.0,meteohub,2013-01-16 17:37:00,
2013-01-16 12:42:00,50.2,50.2,29.92,South,182,0.0,1.0,100,0.00,,,0.34,65.0,meteohub,2013-01-16 17:42:00,
2013-01-16 12:47:00,50.5,50.5,29.92,South,178,0.0,1.0,100,0.00,,,0.34,63.0,meteohub,2013-01-16 17:47:00,
2013-01-16 12:52:00,51.1,51.1,29.91,NE,42,2.0,2.0,100,0.00,,,0.34,141.0,meteohub,2013-01-16 17:52:00,
2013-01-16 12:57:00,51.6,51.6,29.91,North,0,2.0,3.0,100,0.00,,,0.34,218.0,meteohub,2013-01-16 17:57:00,
2013-01-16 13:02:00,52.0,52.0,29.91,North,0,0.0,3.0,100,0.00,,,0.34,113.0,meteohub,2013-01-16 18:02:00,
2013-01-16 13:07:00,52.0,52.0,29.91,North,0,2.0,3.0,100,0.00,,,0.34,83.0,meteohub,2013-01-16 18:07:00,
2013-01-16 13:12:00,51.1,51.1,29.91,North,0,0.0,3.0,100,0.00,,,0.34,91.0,meteohub,2013-01-16 18:12:00,
2013-01-16 13:17:00,50.7,50.7,29.90,North,0,2.0,2.0,100,0.00,,,0.34,91.0,meteohub,2013-01-16 18:17:00,
2013-01-16 13:22:00,51.1,51.1,29.90,North,0,0.0,3.0,100,0.00,,,0.34,86.0,meteohub,2013-01-16 18:22:00,
2013-01-16 13:27:00,51.6,51.6,29.89,North,0,0.0,3.0,100,0.00,,,0.34,65.0,meteohub,2013-01-16 18:27:00,
2013-01-16 13:32:00,52.0,52.0,29.89,North,0,0.0,3.0,100,0.00,,,0.34,81.0,meteohub,2013-01-16 18:32:00,
2013-01-16 13:37:00,52.2,52.2,29.89,North,0,0.0,2.0,100,0.00,,,0.34,100.0,meteohub,2013-01-16 18:37:00,
2013-01-16 13:42:00,52.2,52.2,29.89,SSE,163,1.0,4.0,100,0.00,,,0.34,77.0,meteohub,2013-01-16 18:42:00,
2013-01-16 13:47:00,51.3,51.3,29.90,SSE,163,0.0,4.0,100,0.00,,,0.34,77.0,meteohub,2013-01-16 18:47:00,
2013-01-16 13:52:00,49.6,49.6,29.91,SSE,163,0.0,4.0,100,0.00,,,0.34,74.0,meteohub,2013-01-16 18:52:00,
2013-01-16 13:57:00,48.7,48.7,29.91,SSE,163,0.0,4.0,100,0.00,,,0.34,63.0,meteohub,2013-01-16 18:57:00,
2013-01-16 14:02:00,48.4,48.4,29.91,SSE,163,0.0,2.0,100,0.00,,,0.34,100.0,meteohub,2013-01-16 19:02:00,
2013-01-16 14:07:00,48.6,48.6,29.91,SSE,163,0.0,2.0,100,0.00,,,0.34,156.0,meteohub,2013-01-16 19:07:00,
2013-01-16 14:12:00,49.5,49.5,29.90,SSE,163,0.0,2.0,100,0.00,,,0.34,218.0,meteohub,2013-01-16 19:12:00,
2013-01-16 14:17:00,50.4,50.4,29.89,SSE,163,1.0,2.0,100,0.00,,,0.34,151.0,meteohub,2013-01-16 19:17:00,
2013-01-16 14:22:00,51.6,51.6,29.89,SSE,158,0.0,2.0,100,0.00,,,0.34,160.0,meteohub,2013-01-16 19:22:00,
2013-01-16 14:27:00,52.3,52.3,29.89,North,355,0.0,2.0,100,0.00,,,0.34,107.0,meteohub,2013-01-16 19:27:00,
2013-01-16 14:32:00,52.9,52.9,29.89,North,355,0.0,2.0,100,0.00,,,0.34,107.0,meteohub,2013-01-16 19:32:00,
2013-01-16 14:37:00,53.1,53.1,29.89,North,355,0.0,2.0,100,0.00,,,0.34,116.0,meteohub,2013-01-16 19:37:00,
2013-01-16 14:42:00,53.2,53.2,29.89,North,355,0.0,2.0,100,0.00,,,0.34,72.0,meteohub,2013-01-16 19:42:00,
2013-01-16 14:47:00,53.4,53.4,29.90,North,355,0.0,0.0,100,0.00,,,0.34,40.0,meteohub,2013-01-16 19:47:00,
2013-01-16 14:52:00,52.9,52.9,29.89,North,355,0.0,2.0,100,0.00,,,0.34,49.0,meteohub,2013-01-16 19:52:00,
2013-01-16 14:57:00,52.5,52.5,29.90,North,355,0.0,2.0,100,0.00,,,0.34,39.0,meteohub,2013-01-16 19:57:00,
2013-01-16 15:02:00,52.3,52.3,29.91,North,355,0.0,2.0,100,0.00,,,0.34,35.0,meteohub,2013-01-16 20:02:00,
2013-01-16 15:07:00,51.6,51.6,29.91,North,355,0.0,2.0,100,0.00,,,0.34,46.0,meteohub,2013-01-16 20:07:00,
2013-01-16 15:12:00,51.6,51.6,29.91,North,355,0.0,2.0,100,0.00,,,0.34,56.0,meteohub,2013-01-16 20:12:00,
2013-01-16 15:17:00,51.8,51.8,29.91,North,355,0.0,2.0,100,0.00,,,0.34,54.0,meteohub,2013-01-16 20:17:00,
2013-01-16 15:22:00,52.2,52.2,29.91,North,355,0.0,2.0,100,0.00,,,0.34,77.0,meteohub,2013-01-16 20:22:00,
2013-01-16 15:27:00,52.3,52.3,29.90,North,355,0.0,1.0,100,0.00,,,0.34,60.0,meteohub,2013-01-16 20:27:00,
2013-01-16 15:32:00,52.5,52.5,29.90,North,355,0.0,1.0,100,0.00,,,0.34,109.0,meteohub,2013-01-16 20:32:00,
2013-01-16 15:37:00,52.7,52.7,29.90,North,355,0.0,1.0,100,0.00,,,0.34,65.0,meteohub,2013-01-16 20:37:00,
2013-01-16 15:42:00,53.1,53.1,29.90,North,355,0.0,0.0,100,0.00,,,0.34,67.0,meteohub,2013-01-16 20:42:00,
2013-01-16 15:47:00,53.2,53.2,29.90,North,355,0.0,0.0,100,0.00,,,0.34,46.0,meteohub,2013-01-16 20:47:00,
2013-01-16 15:52:00,53.4,53.4,29.90,North,355,0.0,0.0,100,0.00,,,0.34,54.0,meteohub,2013-01-16 20:52:00,
2013-01-16 15:57:00,53.4,53.4,29.90,North,355,0.0,0.0,100,0.00,,,0.34,58.0,meteohub,2013-01-16 20:57:00,
2013-01-16 16:02:00,53.2,53.2,29.90,North,355,0.0,1.0,100,0.00,,,0.34,81.0,meteohub,2013-01-16 21:02:00,
2013-01-16 16:07:00,53.2,53.2,29.90,North,355,1.0,2.0,100,0.00,,,0.34,72.0,meteohub,2013-01-16 21:07:00,
2013-01-16 16:12:00,53.4,53.1,29.89,North,355,1.0,2.0,99,0.00,,,0.34,100.0,meteohub,2013-01-16 21:12:00,
2013-01-16 16:17:00,53.8,53.4,29.90,North,355,0.0,2.0,99,0.00,,,0.34,74.0,meteohub,2013-01-16 21:17:00,
2013-01-16 16:22:00,54.0,53.6,29.91,SE,146,0.0,2.0,99,0.00,,,0.34,49.0,meteohub,2013-01-16 21:22:00,
2013-01-16 16:27:00,53.2,52.9,29.91,SE,146,0.0,4.0,99,0.00,,,0.34,54.0,meteohub,2013-01-16 21:27:00,
2013-01-16 16:32:00,52.5,52.0,29.91,SE,146,0.0,5.0,98,0.00,,,0.34,40.0,meteohub,2013-01-16 21:32:00,
2013-01-16 16:37:00,52.5,52.0,29.91,SE,146,0.0,5.0,98,0.00,,,0.34,30.0,meteohub,2013-01-16 21:37:00,
2013-01-16 16:42:00,52.7,52.3,29.91,SE,146,0.0,2.0,99,0.00,,,0.34,35.0,meteohub,2013-01-16 21:42:00,
2013-01-16 16:47:00,52.7,52.3,29.91,SE,146,0.0,2.0,99,0.00,,,0.34,46.0,meteohub,2013-01-16 21:47:00,
2013-01-16 16:52:00,52.0,51.4,29.91,SE,146,0.0,5.0,98,0.00,,,0.34,37.0,meteohub,2013-01-16 21:52:00,
2013-01-16 16:57:00,52.0,51.4,29.91,SE,146,0.0,5.0,98,0.00,,,0.34,39.0,meteohub,2013-01-16 21:57:00,
2013-01-16 17:02:00,52.2,51.8,29.91,SE,146,0.0,5.0,99,0.00,,,0.34,30.0,meteohub,2013-01-16 22:02:00,
2013-01-16 17:07:00,52.3,52.0,29.90,NNE,13,1.0,1.0,99,0.00,,,0.34,30.0,meteohub,2013-01-16 22:07:00,
2013-01-16 17:12:00,52.5,52.2,29.91,NNE,13,0.0,3.0,99,0.00,,,0.34,40.0,meteohub,2013-01-16 22:12:00,
2013-01-16 17:17:00,52.9,52.5,29.91,NNE,13,0.0,3.0,99,0.00,,,0.34,18.0,meteohub,2013-01-16 22:17:00,
2013-01-16 17:22:00,53.1,52.7,29.91,NNE,13,0.0,3.0,99,0.00,,,0.34,12.0,meteohub,2013-01-16 22:22:00,
2013-01-16 17:27:00,52.9,52.5,29.91,NNE,13,0.0,1.0,99,0.00,,,0.34,9.0,meteohub,2013-01-16 22:27:00,
2013-01-16 17:32:00,52.5,52.0,29.91,NNE,13,0.0,1.0,98,0.00,,,0.34,7.0,meteohub,2013-01-16 22:32:00,
2013-01-16 17:37:00,52.3,51.8,29.91,NNE,13,1.0,2.0,98,0.00,,,0.34,0.0,meteohub,2013-01-16 22:37:00,
2013-01-16 17:42:00,52.3,51.8,29.91,NNE,13,1.0,2.0,98,0.00,,,0.34,0.0,meteohub,2013-01-16 22:42:00,
2013-01-16 17:47:00,52.3,51.8,29.91,NNE,13,2.0,3.0,98,0.00,,,0.34,0.0,meteohub,2013-01-16 22:47:00,
2013-01-16 17:52:00,52.3,51.8,29.91,North,350,2.0,4.0,98,0.00,,,0.34,0.0,meteohub,2013-01-16 22:52:00,
2013-01-16 17:57:00,52.3,51.8,29.91,North,9,1.0,4.0,98,0.00,,,0.34,0.0,meteohub,2013-01-16 22:57:00,
2013-01-16 18:02:00,52.3,51.8,29.91,North,9,2.0,4.0,98,0.00,,,0.34,0.0,meteohub,2013-01-16 23:02:00,
2013-01-16 18:07:00,52.3,51.8,29.92,North,9,0.0,4.0,98,0.00,,,0.34,0.0,meteohub,2013-01-16 23:07:00,
2013-01-16 18:12:00,52.2,51.6,29.91,North,9,0.0,4.0,98,0.00,,,0.34,0.0,meteohub,2013-01-16 23:12:00,
2013-01-16 18:17:00,52.0,51.4,29.92,North,9,1.0,4.0,98,0.00,,,0.34,0.0,meteohub,2013-01-16 23:17:00,
2013-01-16 18:22:00,52.2,51.6,29.92,North,9,1.0,1.0,98,0.00,,,0.34,0.0,meteohub,2013-01-16 23:22:00,
2013-01-16 18:27:00,52.2,51.8,29.92,North,9,2.0,3.0,99,0.00,,,0.34,0.0,meteohub,2013-01-16 23:27:00,
2013-01-16 18:32:00,52.3,51.8,29.92,North,9,2.0,3.0,98,0.00,,,0.34,0.0,meteohub,2013-01-16 23:32:00,
2013-01-16 18:37:00,52.3,51.8,29.92,North,9,2.0,3.0,98,0.00,,,0.34,0.0,meteohub,2013-01-16 23:37:00,
2013-01-16 18:42:00,52.5,52.0,29.92,North,11,3.0,4.0,98,0.00,,,0.34,0.0,meteohub,2013-01-16 23:42:00,
2013-01-16 18:48:00,52.7,52.3,29.92,North,11,3.0,4.0,99,0.00,,,0.34,0.0,meteohub,2013-01-16 23:48:00,
2013-01-16 18:54:00,52.7,52.2,29.92,North,11,2.0,5.0,98,0.00,,,0.34,0.0,meteohub,2013-01-16 23:54:00,
2013-01-16 19:00:00,52.7,52.2,29.92,North,11,2.0,5.0,98,0.00,,,0.34,0.0,meteohub,2013-01-17 00:00:00,
2013-01-16 19:06:00,52.7,52.2,29.91,North,11,3.0,4.0,98,0.00,,,0.34,0.0,meteohub,2013-01-17 00:06:00,
2013-01-16 19:12:00,52.9,52.3,29.91,North,11,3.0,4.0,98,0.00,,,0.34,0.0,meteohub,2013-01-17 00:12:00,
2013-01-16 19:17:00,53.1,52.5,29.91,North,11,3.0,5.0,98,0.00,,,0.34,0.0,meteohub,2013-01-17 00:17:00,
2013-01-16 19:22:00,53.2,52.7,29.92,North,11,2.0,5.0,98,0.00,,,0.34,0.0,meteohub,2013-01-17 00:22:00,
2013-01-16 19:27:00,53.2,52.7,29.92,North,349,2.0,5.0,98,0.00,,,0.34,0.0,meteohub,2013-01-17 00:27:00,
2013-01-16 19:32:00,53.2,52.3,29.92,North,5,2.0,4.0,97,0.00,,,0.34,0.0,meteohub,2013-01-17 00:32:00,
2013-01-16 19:37:00,53.2,52.2,29.92,North,5,2.0,4.0,96,0.00,,,0.34,0.0,meteohub,2013-01-17 00:37:00,
2013-01-16 19:42:00,53.2,52.2,29.92,North,11,4.0,4.0,96,0.00,,,0.34,0.0,meteohub,2013-01-17 00:42:00,
2013-01-16 19:47:00,53.1,51.6,29.92,NNE,12,1.0,5.0,95,0.00,,,0.34,0.0,meteohub,2013-01-17 00:47:00,
2013-01-16 19:52:00,53.1,52.0,29.92,NNE,12,2.0,5.0,96,0.00,,,0.34,0.0,meteohub,2013-01-17 00:52:00,
2013-01-16 19:57:00,53.1,52.0,29.92,NNE,12,0.0,5.0,96,0.00,,,0.34,0.0,meteohub,2013-01-17 00:57:00,
2013-01-16 20:02:00,52.9,52.0,29.92,NNE,12,0.0,4.0,97,0.00,,,0.34,0.0,meteohub,2013-01-17 01:02:00,
2013-01-16 20:07:00,52.9,52.0,29.92,NNE,12,0.0,3.0,97,0.00,,,0.34,0.0,meteohub,2013-01-17 01:07:00,
2013-01-16 20:12:00,52.7,51.8,29.92,NNE,12,0.0,0.0,97,0.00,,,0.34,0.0,meteohub,2013-01-17 01:12:00,
2013-01-16 20:17:00,52.5,51.6,29.91,NNE,12,0.0,0.0,97,0.00,,,0.34,0.0,meteohub,2013-01-17 01:17:00,
2013-01-16 20:22:00,52.5,51.6,29.92,NNE,12,0.0,1.0,97,0.00,,,0.34,0.0,meteohub,2013-01-17 01:22:00,
2013-01-16 20:27:00,52.5,51.6,29.92,North,11,1.0,2.0,97,0.00,,,0.34,0.0,meteohub,2013-01-17 01:27:00,
2013-01-16 20:32:00,52.2,51.3,29.93,NNE,12,0.0,2.0,97,0.00,,,0.34,0.0,meteohub,2013-01-17 01:32:00,
2013-01-16 20:37:00,52.0,51.1,29.93,NNE,12,0.0,1.0,97,0.00,,,0.34,0.0,meteohub,2013-01-17 01:37:00,
2013-01-16 20:42:00,51.4,50.5,29.93,NNE,12,0.0,1.0,97,0.00,,,0.34,0.0,meteohub,2013-01-17 01:42:00,
2013-01-16 20:47:00,51.6,51.1,29.93,NNE,12,0.0,1.0,98,0.00,,,0.34,0.0,meteohub,2013-01-17 01:47:00,
2013-01-16 20:52:00,51.8,51.3,29.93,NNE,12,0.0,1.0,98,0.00,,,0.34,0.0,meteohub,2013-01-17 01:52:00,
2013-01-16 20:57:00,52.0,51.4,29.93,NNE,12,1.0,1.0,98,0.00,,,0.34,0.0,meteohub,2013-01-17 01:57:00,
2013-01-16 21:02:00,52.2,51.8,29.93,NNE,12,0.0,1.0,99,0.00,,,0.34,0.0,meteohub,2013-01-17 02:02:00,
2013-01-16 21:07:00,52.2,51.8,29.93,North,11,0.0,1.0,99,0.00,,,0.34,0.0,meteohub,2013-01-17 02:07:00,
2013-01-16 21:12:00,52.2,51.8,29.93,NNE,12,1.0,1.0,99,0.00,,,0.34,0.0,meteohub,2013-01-17 02:12:00,
2013-01-16 21:17:00,52.0,51.4,29.93,NNE,12,0.0,1.0,98,0.00,,,0.34,0.0,meteohub,2013-01-17 02:17:00,
2013-01-16 21:22:00,52.0,51.4,29.94,NNE,12,0.0,1.0,98,0.01,,,0.35,0.0,meteohub,2013-01-17 02:22:00,
2013-01-16 21:27:00,52.0,51.4,29.94,NNE,12,0.0,1.0,98,0.01,,,0.35,0.0,meteohub,2013-01-17 02:27:00,
2013-01-16 21:32:00,51.8,51.3,29.93,NNE,12,0.0,0.0,98,0.02,,,0.36,0.0,meteohub,2013-01-17 02:32:00,
2013-01-16 21:37:00,51.8,51.3,29.93,NNE,12,0.0,1.0,98,0.03,,,0.37,0.0,meteohub,2013-01-17 02:37:00,
2013-01-16 21:42:00,51.8,51.4,29.92,NNE,12,0.0,1.0,99,0.03,,,0.37,0.0,meteohub,2013-01-17 02:42:00,
2013-01-16 21:47:00,51.8,51.4,29.93,NNE,12,0.0,1.0,99,0.03,,,0.37,0.0,meteohub,2013-01-17 02:47:00,
2013-01-16 21:52:00,51.8,51.4,29.92,NNE,12,0.0,1.0,99,0.03,,,0.37,0.0,meteohub,2013-01-17 02:52:00,
2013-01-16 21:57:00,51.8,51.4,29.92,NNE,12,0.0,1.0,99,0.04,,,0.38,0.0,meteohub,2013-01-17 02:57:00,
2013-01-16 22:02:00,52.0,51.6,29.92,NNE,12,0.0,1.0,99,0.04,,,0.38,0.0,meteohub,2013-01-17 03:02:00,
2013-01-16 22:07:00,52.0,51.6,29.92,NNE,12,0.0,1.0,99,0.05,,,0.39,0.0,meteohub,2013-01-17 03:07:00,
2013-01-16 22:12:00,52.0,51.6,29.92,NNE,12,0.0,2.0,99,0.05,,,0.39,0.0,meteohub,2013-01-17 03:12:00,
2013-01-16 22:17:00,52.0,51.6,29.91,NNE,12,0.0,2.0,99,0.05,,,0.39,0.0,meteohub,2013-01-17 03:17:00,
2013-01-16 22:22:00,51.8,51.4,29.92,NNE,12,0.0,2.0,99,0.04,,,0.39,0.0,meteohub,2013-01-17 03:22:00,
2013-01-16 22:27:00,51.8,51.4,29.91,NNE,12,1.0,1.0,99,0.05,,,0.40,0.0,meteohub,2013-01-17 03:27:00,
2013-01-16 22:32:00,51.8,51.4,29.91,NNE,12,0.0,2.0,99,0.05,,,0.40,0.0,meteohub,2013-01-17 03:32:00,
2013-01-16 22:37:00,51.8,51.4,29.91,NNE,12,0.0,2.0,99,0.05,,,0.42,0.0,meteohub,2013-01-17 03:37:00,
2013-01-16 22:42:00,51.8,51.4,29.91,NNE,12,0.0,2.0,99,0.05,,,0.42,0.0,meteohub,2013-01-17 03:42:00,
2013-01-16 22:47:00,51.8,51.4,29.91,NNE,12,0.0,2.0,99,0.05,,,0.42,0.0,meteohub,2013-01-17 03:47:00,
2013-01-16 22:52:00,51.8,51.4,29.90,NNE,12,1.0,2.0,99,0.04,,,0.42,0.0,meteohub,2013-01-17 03:52:00,
2013-01-16 22:58:00,52.0,51.6,29.91,NNE,12,0.0,2.0,99,0.04,,,0.42,0.0,meteohub,2013-01-17 03:58:00,
2013-01-16 23:04:00,52.0,51.6,29.91,NNE,12,0.0,1.0,99,0.04,,,0.42,0.0,meteohub,2013-01-17 04:04:00,
2013-01-16 23:10:00,52.0,51.6,29.91,NNE,12,0.0,1.0,99,0.03,,,0.42,0.0,meteohub,2013-01-17 04:10:00,
2013-01-16 23:16:00,52.0,51.6,29.91,NNE,12,1.0,2.0,99,0.03,,,0.42,0.0,meteohub,2013-01-17 04:16:00,
2013-01-16 23:22:00,51.8,51.4,29.91,NNE,12,3.0,3.0,99,0.02,,,0.42,0.0,meteohub,2013-01-17 04:22:00,
2013-01-16 23:27:00,51.6,51.3,29.90,NNE,16,3.0,3.0,99,0.02,,,0.42,0.0,meteohub,2013-01-17 04:27:00,
2013-01-16 23:32:00,51.6,51.3,29.91,NNE,13,4.0,4.0,99,0.01,,,0.42,0.0,meteohub,2013-01-17 04:32:00,
2013-01-16 23:37:00,51.4,51.1,29.90,North,355,4.0,4.0,99,0.01,,,0.43,0.0,meteohub,2013-01-17 04:37:00,
2013-01-16 23:42:00,51.4,51.1,29.90,NNE,17,6.0,6.0,99,0.01,,,0.43,0.0,meteohub,2013-01-17 04:42:00,
2013-01-16 23:47:00,51.4,51.1,29.90,NNE,15,4.0,10.0,99,0.01,,,0.43,0.0,meteohub,2013-01-17 04:47:00,
2013-01-16 23:52:00,51.3,50.9,29.90,NNE,13,5.0,10.0,99,0.01,,,0.43,0.0,meteohub,2013-01-17 04:52:00,
2013-01-16 23:57:00,51.3,50.9,29.90,North,10,4.0,10.0,99,0.01,,,0.43,0.0,meteohub,2013-01-17 04:57:00,